TimeEDT,TemperatureF,Dew PointF,Humidity,Sea Level PressureIn,VisibilityMPH,Wind Direction,Wind SpeedMPH,Gust SpeedMPH,PrecipitationIn,Events,Conditions,WindDirDegrees,DateUTC
12:14 AM,66.0,59.0,78,30.02,10.0,Calm,Calm,-,N/A,,Scattered Clouds,0,2012-03-16 04:14:00
12:34 AM,60.1,57.4,91,30.02,10.0,Calm,Calm,-,N/A,,Scattered Clouds,0,2012-03-16 04:34:00
12:55 AM,59.7,56.5,89,30.02,10.0,Calm,Calm,-,N/A,,Clear,0,2012-03-16 04:55:00
1:14 AM,56.8,55.8,96,30.02,7.0,Calm,Calm,-,N/A,,Clear,0,2012-03-16 05:14:00
1:34 AM,56.3,55.2,96,30.02,7.0,Calm,Calm,-,N/A,,Clear,0,2012-03-16 05:34:00
1:55 AM,56.5,55.6,97,30.02,7.0,South,3.5,-,N/A,,Clear,180,2012-03-16 05:55:00
2:14 AM,58.3,57.2,96,30.03,10.0,Calm,Calm,-,N/A,,Clear,0,2012-03-16 06:14:00
2:34 AM,59.9,58.1,94,30.03,10.0,Calm,Calm,-,N/A,,Clear,0,2012-03-16 06:34:00
2:55 AM,58.1,56.5,94,30.03,10.0,Calm,Calm,-,N/A,,Clear,0,2012-03-16 06:55:00
3:14 AM,54.7,53.4,96,30.05,7.0,Calm,Calm,-,N/A,,Clear,0,2012-03-16 07:14:00
3:35 AM,57.0,56.5,98,30.04,7.0,Calm,Calm,-,N/A,,Clear,0,2012-03-16 07:35:00
3:54 AM,56.3,55.4,97,30.05,7.0,South,4.6,-,N/A,,Clear,180,2012-03-16 07:54:00
4:35 AM,57.2,55.9,96,30.03,10.0,Calm,Calm,-,N/A,,Clear,0,2012-03-16 08:35:00
4:54 AM,55.2,54.5,97,30.04,7.0,Calm,Calm,-,N/A,,Clear,0,2012-03-16 08:54:00
5:14 AM,53.4,53.2,99,30.04,2.5,Calm,Calm,-,N/A,,Clear,0,2012-03-16 09:14:00
5:35 AM,53.6,53.4,99,30.04,7.0,Calm,Calm,-,N/A,,Clear,0,2012-03-16 09:35:00
5:54 AM,53.6,53.6,100,30.04,7.0,Calm,Calm,-,N/A,,Clear,0,2012-03-16 09:54:00
6:14 AM,52.9,52.9,100,30.05,7.0,South,3.5,-,N/A,,Clear,180,2012-03-16 10:14:00
6:34 AM,54.1,54.1,100,30.06,7.0,South,3.5,-,N/A,,Clear,180,2012-03-16 10:34:00
6:54 AM,52.7,52.7,100,30.06,7.0,South,4.6,-,N/A,,Clear,180,2012-03-16 10:54:00
7:14 AM,53.1,53.1,100,30.06,7.0,South,3.5,-,N/A,,Clear,190,2012-03-16 11:14:00
7:34 AM,52.9,52.9,100,30.07,5.0,South,3.5,-,N/A,,Clear,190,2012-03-16 11:34:00
7:55 AM,52.9,52.9,100,30.07,4.0,South,3.5,-,N/A,,Clear,180,2012-03-16 11:55:00
8:14 AM,52.7,52.7,100,30.08,2.5,SSW,4.6,-,N/A,,Mist,200,2012-03-16 12:14:00
8:34 AM,53.1,53.1,100,30.09,2.0,Calm,Calm,-,N/A,,Mist,0,2012-03-16 12:34:00
8:55 AM,53.6,53.6,100,30.09,1.8,Calm,Calm,-,N/A,,Mist,0,2012-03-16 12:55:00
9:14 AM,55.9,55.9,100,30.09,2.5,Calm,Calm,-,N/A,,Mist,0,2012-03-16 13:14:00
9:35 AM,57.2,57.2,100,30.10,3.0,South,4.6,-,N/A,,Mist,190,2012-03-16 13:35:00
9:54 AM,58.6,58.1,98,30.10,4.0,SSW,4.6,-,N/A,,Clear,200,2012-03-16 13:54:00
10:14 AM,60.1,58.5,94,30.10,5.0,SSW,4.6,-,N/A,,Clear,200,2012-03-16 14:14:00
10:35 AM,61.7,59.0,91,30.10,7.0,SSW,6.9,-,N/A,,Clear,200,2012-03-16 14:35:00
10:54 AM,62.6,59.0,88,30.10,7.0,SSW,3.5,-,N/A,,Clear,200,2012-03-16 14:54:00
11:34 AM,65.7,60.3,83,30.11,7.0,South,3.5,-,N/A,,Clear,180,2012-03-16 15:34:00
11:54 AM,66.7,60.6,81,30.10,10.0,SSE,4.6,-,N/A,,Clear,160,2012-03-16 15:54:00
12:15 PM,68.0,61.3,79,30.10,7.0,South,8.1,-,N/A,,Clear,170,2012-03-16 16:15:00
12:34 PM,68.5,61.2,77,30.10,10.0,South,9.2,-,N/A,,Clear,170,2012-03-16 16:34:00
1:14 PM,70.3,61.9,74,30.10,10.0,SSW,6.9,-,N/A,,Clear,200,2012-03-16 17:14:00
1:34 PM,71.6,62.4,73,30.09,10.0,South,9.2,-,N/A,,Clear,170,2012-03-16 17:34:00
1:55 PM,71.8,62.2,72,30.09,7.0,South,8.1,-,N/A,,Clear,180,2012-03-16 17:55:00
2:14 PM,72.5,62.4,71,30.08,7.0,SSE,3.5,-,N/A,,Clear,160,2012-03-16 18:14:00
2:35 PM,73.2,62.8,70,30.08,10.0,South,8.1,-,N/A,,Clear,170,2012-03-16 18:35:00
2:54 PM,74.3,62.8,67,30.07,10.0,SSW,6.9,-,N/A,,Clear,200,2012-03-16 18:54:00
3:14 PM,74.7,62.8,66,30.06,10.0,SSW,8.1,-,N/A,,Clear,200,2012-03-16 19:14:00
3:35 PM,75.6,62.8,64,30.06,10.0,South,5.8,-,N/A,,Clear,170,2012-03-16 19:35:00
3:54 PM,75.7,63.0,64,30.06,10.0,SSW,6.9,-,N/A,,Clear,200,2012-03-16 19:54:00
4:14 PM,76.1,62.8,63,30.06,10.0,SSW,4.6,-,N/A,,Clear,200,2012-03-16 20:14:00
4:35 PM,76.3,62.1,61,30.06,10.0,SSW,8.1,-,N/A,,Clear,210,2012-03-16 20:35:00
4:54 PM,76.8,62.1,60,30.05,10.0,South,5.8,-,N/A,,Clear,180,2012-03-16 20:54:00
5:14 PM,76.6,61.3,59,30.06,10.0,South,8.1,-,N/A,,Clear,170,2012-03-16 21:14:00
5:35 PM,75.4,60.8,60,30.06,10.0,South,8.1,-,N/A,,Clear,170,2012-03-16 21:35:00
5:54 PM,75.2,61.0,61,30.06,10.0,South,5.8,-,N/A,,Clear,180,2012-03-16 21:54:00
6:15 PM,75.4,60.8,60,30.06,10.0,SSE,5.8,-,N/A,,Clear,160,2012-03-16 22:15:00
6:35 PM,75.4,60.3,59,30.05,10.0,SSE,5.8,-,N/A,,Clear,150,2012-03-16 22:35:00
6:54 PM,75.0,60.3,60,30.06,10.0,SSE,4.6,-,N/A,,Clear,150,2012-03-16 22:54:00
7:15 PM,72.5,60.3,65,30.06,10.0,South,4.6,-,N/A,,Clear,170,2012-03-16 23:15:00
7:34 PM,71.4,59.9,67,30.06,10.0,South,4.6,-,N/A,,Clear,170,2012-03-16 23:34:00
7:54 PM,71.6,59.5,66,30.07,10.0,South,3.5,-,N/A,,Scattered Clouds,180,2012-03-16 23:54:00
8:15 PM,69.6,59.7,71,30.07,10.0,Calm,Calm,-,N/A,,Scattered Clouds,0,2012-03-17 00:15:00
8:34 PM,67.6,59.2,74,30.07,10.0,South,3.5,-,N/A,,Clear,170,2012-03-17 00:34:00
8:54 PM,66.6,58.8,76,30.08,10.0,Calm,Calm,-,N/A,,Clear,0,2012-03-17 00:54:00
9:15 PM,64.9,58.6,80,30.09,10.0,Calm,Calm,-,N/A,,Clear,0,2012-03-17 01:15:00
9:34 PM,61.3,57.4,87,30.09,10.0,Calm,Calm,-,N/A,,Clear,0,2012-03-17 01:34:00
9:54 PM,63.0,58.5,85,30.09,10.0,Calm,Calm,-,N/A,,Clear,0,2012-03-17 01:54:00
10:14 PM,64.4,58.5,81,30.09,10.0,SSE,5.8,-,N/A,,Clear,160,2012-03-17 02:14:00
10:34 PM,66.0,58.5,77,30.10,10.0,South,4.6,-,N/A,,Clear,170,2012-03-17 02:34:00
10:54 PM,65.8,58.3,77,30.10,10.0,South,6.9,-,N/A,,Clear,170,2012-03-17 02:54:00
11:15 PM,64.6,57.7,78,30.10,10.0,South,6.9,-,N/A,,Clear,170,2012-03-17 03:15:00
11:34 PM,63.3,57.4,81,30.10,10.0,South,6.9,-,N/A,,Clear,180,2012-03-17 03:34:00
11:54 PM,63.1,56.8,80,30.11,10.0,South,6.9,-,N/A,,Clear,180,2012-03-17 03:54:00